Vorticity
7 7 8 7 7 6 10 10 4 8 8 4 6 8 9 8 8 7 7 6 6 7 6 7 6 6 7 6 7 6 7 6 7 7 5 7 6 6 6 5 5 5 4 5 5 4 6 4 6 8 7 8 4 6 5 6 10 6 0 2 7 2 11 16 6 10 6 -2 2 10 14 10 0 -9 6 16 7 0 1 11 8 12 16 8 7 1 4 5
9 9 10 8 7 6 11 10 5 8 7 5 7 8 9 8 7 6 7 6 6 6 5 6 4 6 6 6 7 6 6 6 6 6 6 6 5 6 5 6 5 5 6 4 5 4 4 4 5 6 8 9 3 -5 -8 -2 3 12 8 -9 3 11 12 11 0 12 11 -1 13 29 8 -6 13 9 18 20 -6 -3 5 10 5 2 13 6 2 1 3 5
15 14 13 11 8 8 12 10 6 8 6 5 7 8 9 8 7 6 6 6 6 6 5 6 5 5 4 5 6 5 6 6 6 6 6 7 5 6 4 6 5 5 7 3 5 4 4 5 4 5 8 8 6 2 -4 -2 -3 3 2 -7 13 8 0 18 14 11 15 10 11 23 5 -4 26 9 8 17 -11 -2 2 8 12 -4 7 9 2 2 0 4
17 17 15 12 9 9 11 9 6 7 5 5 7 8 9 8 7 6 6 6 6 6 5 5 5 5 4 5 4 5 7 3 6 6 7 8 6 5 4 5 5 5 6 4 4 3 5 4 3 5 4 5 11 14 6 2 11 18 9 7 24 2 -8 20 18 7 14 15 7 17 11 7 29 -16 -26 17 14 11 -6 -4 14 -1 2 6 5 6 0 3
13 15 15 12 10 9 10 8 5 5 5 5 6 8 8 8 7 5 5 5 6 6 6 6 6 7 6 7 6 7 6 1 4 7 6 8 8 7 5 5 5 6 5 5 5 3 5 3 5 5 4 11 13 11 2 -1 7 3 -5 1 11 -1 1 16 10 7 9 11 8 16 10 7 24 -10 -10 36 16 -0 -2 -3 7 5 5 2 3 8 6 4
9 11 12 11 10 9 9 7 5 5 6 6 7 8 8 7 6 5 5 5 6 7 7 8 7 8 8 9 10 9 9 5 5 7 6 7 9 9 7 7 5 5 5 4 5 4 4 4 4 4 4 1 -7 -4 3 9 4 -7 -0 7 6 4 9 15 12 9 4 6 6 8 11 7 11 -2 8 34 7 -6 8 -2 -2 10 7 0 4 5 7 7
8 8 10 10 9 9 7 6 6 6 7 7 7 8 9 7 6 5 5 5 6 7 8 9 8 9 8 9 10 10 12 11 8 9 8 7 8 10 9 9 7 6 5 5 7 5 4 6 3 4 5 -6 -11 -5 5 22 17 2 1 -2 5 11 11 12 8 7 6 7 5 3 13 9 5 6 6 16 11 6 12 6 2 8 4 2 6 2 3 8
9 8 8 8 8 7 6 6 7 8 8 9 7 8 9 7 6 5 5 5 6 8 8 7 6 7 6 7 9 8 10 9 9 9 8 8 7 9 10 9 9 7 6 6 7 6 6 7 4 3 2 3 15 16 11 16 9 -0 -5 -0 10 -1 1 16 7 4 6 7 6 5 10 2 -3 4 2 5 12 5 1 8 9 6 10 8 2 3 7 6
9 9 8 8 8 6 7 7 7 8 9 9 8 8 9 9 8 6 6 6 7 8 6 5 5 5 5 7 6 6 8 7 8 8 7 8 7 8 9 10 10 8 8 8 8 10 7 6 6 7 3 4 15 17 10 -1 -2 11 10 16 17 -10 -1 20 12 3 -1 6 11 6 3 -0 1 4 3 5 13 10 -6 -0 7 4 8 3 -1 7 9 3
9 9 10 9 8 7 7 7 6 8 8 9 8 8 9 10 9 7 6 6 6 5 4 5 5 5 6 6 6 6 7 6 6 7 6 6 7 8 8 8 8 7 8 8 8 9 8 9 8 6 6 7 9 8 9 -0 -2 14 10 9 9 -0 8 8 3 2 1 10 10 6 2 1 6 2 7 7 4 14 4 -2 6 5 2 -2 1 7 7 3
9 9 10 10 9 9 9 8 8 8 9 10 9 9 11 12 10 7 5 5 5 5 4 5 6 7 6 4 6 6 7 7 6 7 6 6 7 6 7 6 7 6 6 6 8 7 8 10 8 7 6 8 10 4 10 10 2 6 6 7 5 4 10 2 -1 3 12 14 -4 -1 4 -0 5 2 11 8 -0 15 8 -3 2 4 3 -1 2 2 6 4
8 8 9 10 10 10 10 11 9 10 11 12 11 11 13 12 9 5 5 5 4 5 4 5 6 5 6 6 6 6 7 6 6 7 5 5 6 5 6 5 6 5 5 5 5 7 8 8 6 8 7 7 9 5 9 12 6 7 4 6 8 5 10 10 7 5 10 7 -8 4 9 6 14 9 5 -4 0 16 4 -1 1 -1 5 5 3 -1 3 6
7 8 8 8 9 10 11 12 11 11 12 13 14 14 12 8 6 5 5 5 4 5 4 5 6 5 6 7 7 7 6 6 6 7 6 6 6 5 5 5 5 5 6 6 6 8 8 8 7 4 5 6 4 4 9 9 5 7 6 9 11 6 9 8 9 12 8 6 6 13 13 11 12 1 -3 -6 2 12 1 3 6 3 8 8 8 4 3 8
6 6 7 7 8 8 9 11 12 12 12 14 14 11 7 4 3 5 4 4 4 4 5 4 5 6 6 6 7 7 7 8 6 7 7 7 6 4 5 5 5 5 6 7 7 8 8 8 7 5 6 5 5 6 8 10 9 10 12 8 -0 5 18 9 0 -3 -11 -5 -1 -3 2 5 2 -3 -0 1 1 8 7 2 2 4 5 5 12 12 5 7
8 6 7 6 7 8 8 9 10 11 11 11 10 6 4 3 3 3 2 3 3 3 3 2 3 4 6 7 8 7 8 8 7 8 7 6 7 5 5 4 4 6 6 6 6 6 9 9 7 6 5 3 8 9 6 8 4 -2 3 6 -2 -2 17 17 1 -5 -2 7 2 -6 -1 -3 -2 3 1 3 1 3 11 5 -0 3 4 6 9 7 5 7
12 10 7 6 6 8 7 7 8 9 8 6 5 4 3 4 5 4 3 2 2 2 1 1 3 3 4 7 8 8 8 8 7 7 7 7 6 4 5 6 6 6 4 5 7 7 8 8 8 7 6 8 8 9 10 9 8 1 -4 10 15 3 12 16 -2 -1 9 12 11 3 2 3 7 9 8 17 16 6 10 10 4 5 7 7 4 3 4 4
11 12 12 9 6 6 7 8 7 7 6 4 3 3 4 5 5 5 5 4 3 3 4 3 4 4 5 7 7 7 6 7 7 7 7 6 5 6 7 7 7 7 5 5 6 8 10 8 9 7 7 9 6 12 12 1 11 18 3 1 9 5 8 5 -3 8 10 10 26 17 -3 3 10 8 10 16 15 10 8 9 8 8 8 6 4 4 2 2
7 10 14 13 10 8 6 7 8 7 6 5 3 2 3 3 4 5 4 6 6 4 5 4 4 6 7 7 6 7 6 6 7 7 7 5 6 8 7 8 8 6 6 8 8 9 10 8 9 8 10 10 5 8 2 -6 1 7 11 8 1 5 5 -1 4 7 -2 -5 13 17 -2 -1 8 9 13 12 8 10 6 6 9 7 7 8 5 5 4 4
6 7 9 13 16 13 9 7 7 8 7 6 5 4 4 3 2 3 3 4 5 5 5 4 4 4 4 6 5 5 6 5 6 7 8 8 8 8 8 8 7 8 9 9 9 9 11 11 9 8 8 6 5 6 -1 4 11 1 11 16 -2 3 8 6 8 -1 5 6 -4 2 -4 -6 9 6 3 9 9 10 8 5 7 8 8 9 7 6 6 4
8 7 7 9 13 15 15 12 7 7 8 7 7 5 5 6 4 4 3 3 3 4 5 4 5 4 4 7 7 7 7 7 8 7 7 8 8 9 10 9 7 10 9 6 10 10 9 7 7 12 12 3 3 14 11 5 9 3 7 12 -1 2 6 5 8 4 15 20 5 5 -0 1 19 7 -4 7 7 5 7 5 5 7 8 10 10 9 8 7
7 7 7 7 8 11 14 16 14 10 7 7 8 7 7 7 6 6 6 5 5 5 5 5 6 6 7 7 7 8 5 7 7 6 8 7 9 11 9 10 10 9 8 10 19 15 3 3 13 17 10 6 4 7 12 4 2 7 7 8 4 6 8 5 18 19 1 -1 11 19 14 13 17 6 2 12 12 9 8 8 7 6 9 11 11 9 8 8
7 7 7 6 6 7 8 12 15 15 13 9 7 6 7 8 6 6 6 6 7 6 6 5 6 5 7 7 7 9 7 8 7 6 8 6 9 11 9 12 9 10 14 9 13 8 -5 1 14 9 -7 2 15 3 3 7 6 12 9 7 9 11 10 5 15 23 8 5 11 9 8 8 6 6 10 10 9 10 8 9 8 4 5 4 3 4 3 3
6 7 7 7 6 6 6 7 9 13 17 15 13 9 7 7 8 8 7 6 6 7 7 5 6 5 5 7 7 8 8 8 8 7 8 7 10 9 7 10 5 10 18 7 6 1 -5 4 3 4 8 10 16 10 9 13 8 9 6 5 9 7 3 3 2 -0 2 6 -3 -6 6 8 5 7 10 10 7 7 7 6 4 1 2 0 0 2 0 2
4 6 7 7 7 7 7 7 6 8 10 14 18 16 11 8 6 7 8 8 7 7 8 7 7 7 6 7 6 7 8 8 8 7 8 7 7 8 5 8 6 7 12 10 9 -3 0 20 4 -7 8 8 5 8 9 11 7 8 6 3 12 13 5 6 10 6 4 3 -4 5 21 21 15 9 9 12 6 4 4 3 5 4 4 5 6 7 7 9
2 3 5 6 8 8 7 8 8 8 8 9 11 14 19 16 10 7 5 7 8 7 9 8 7 8 7 6 6 8 8 8 8 6 8 7 5 8 5 6 6 2 7 9 7 2 5 15 6 -7 -5 3 9 8 5 5 7 13 7 1 6 8 9 9 7 6 4 3 4 10 14 6 -3 -6 -1 4 7 11 6 3 9 8 7 8 8 9 9 9
3 1 1 2 4 7 8 8 8 8 8 8 9 9 11 15 18 16 9 7 8 9 11 10 9 10 10 8 7 8 8 7 10 8 8 8 6 7 5 7 6 4 11 3 -5 10 12 -1 1 5 -0 3 7 6 11 10 7 11 11 19 16 -3 7 18 4 -3 2 7 9 6 2 -4 -7 -3 6 11 17 19 12 9 10 6 5 5 4 5 5 6
5 3 2 1 1 3 6 7 7 8 8 8 10 7 6 9 12 16 18 14 10 10 10 10 11 9 8 8 6 7 5 3 9 11 9 10 10 9 9 7 7 10 14 7 5 13 11 1 2 6 2 5 11 13 19 19 13 9 3 14 19 -1 2 13 3 2 6 7 6 3 4 7 4 4 12 16 8 -1 -3 2 3 1 2 3 4 5 2 4
4 4 4 3 1 1 1 4 5 7 8 7 8 9 8 7 5 9 15 13 11 12 9 7 9 5 2 5 6 6 5 7 12 12 10 11 9 7 9 7 8 11 1 -1 11 6 1 6 4 5 6 8 12 0 -8 3 13 12 -4 -14 -4 2 4 6 5 5 4 5 5 4 9 11 3 1 11 9 -7 -12 -6 1 6 5 8 10 8 5 5 5
5 5 5 5 4 2 0 1 3 4 6 7 8 7 6 7 7 6 6 8 15 17 13 12 12 11 12 10 7 5 5 5 3 -0 -0 2 3 3 4 4 5 7 -1 -2 8 5 4 7 -1 5 10 8 9 -8 -19 -3 6 8 4 -8 -3 5 1 0 2 1 2 3 0 1 9 10 6 9 10 -3 -10 3 9 6 5 4 7 9 0 1 7 7
5 4 4 4 5 5 3 2 2 2 2 3 5 7 8 8 7 6 7 10 12 10 7 7 6 9 13 13 13 13 10 8 2 0 3 3 5 5 3 7 6 4 5 5 5 5 6 2 -0 7 4 -2 3 -2 -2 7 3 2 5 3 6 4 2 7 10 12 13 10 11 20 21 14 11 11 10 11 14 15 11 5 3 3 5 3 -3 3 8 7
7 7 7 6 5 5 5 4 3 3 1 1 3 4 5 7 8 11 11 8 6 8 13 12 8 8 9 11 22 22 14 17 15 10 10 10 9 8 6 10 11 6 5 6 11 15 14 13 19 25 18 9 6 1 1 4 4 3 0 3 7 4 9 17 19 20 15 15 23 23 13 8 13 14 11 14 10 2 2 1 -2 1 0 -3 0 8 8 7
12 12 12 12 11 9 8 7 6 4 3 3 4 3 4 6 7 6 10 16 11 2 8 17 17 15 7 5 16 14 4 10 14 16 21 16 10 14 19 20 17 15 14 15 18 17 13 10 11 21 25 20 18 15 7 7 19 25 19 19 21 21 22 20 17 10 0 6 7 -2 -2 6 20 28 17 7 11 16 7 -10 -11 -1 -2 -1 6 8 7 8
11 12 12 12 12 11 11 11 9 8 7 6 6 5 5 5 5 7 14 21 10 -5 -2 3 0 2 2 5 11 6 6 10 5 7 11 2 2 15 18 9 2 5 10 6 0 -1 3 1 0 8 11 9 15 19 12 8 15 18 14 13 14 13 6 -3 -4 -5 -6 -3 -11 -13 -0 3 4 8 -1 -3 3 -1 -14 -16 1 9 1 1 5 4 8 8
9 9 10 10 11 10 10 11 11 11 11 10 9 7 9 9 9 11 -1 -18 -13 3 3 -10 -8 4 4 7 9 1 8 12 -2 -3 7 11 19 20 9 1 -4 0 10 7 2 7 12 9 9 9 4 2 -0 -5 -1 4 -3 -12 -15 -12 -6 -2 2 1 -0 1 3 -2 -9 -5 1 -5 -13 -23 -21 -6 -7 -20 -15 -0 9 7 -0 0 1 3 12 16
8 9 8 8 10 10 10 10 9 10 10 10 11 10 11 6 -0 0 -7 -21 -11 8 3 -7 4 10 3 5 12 9 9 9 3 1 1 -1 -1 -3 3 13 10 5 11 14 10 14 18 15 8 -1 -5 1 -4 -17 -9 0 -2 -3 -4 -2 3 5 8 6 1 1 0 -3 1 7 3 -0 0 -5 -1 6 -6 -11 -0 4 5 5 -0 0 6 11 15 18
8 8 8 8 8 9 10 10 9 10 9 8 9 9 6 4 0 1 5 4 3 4 4 6 8 5 7 11 14 17 13 6 4 1 -1 1 -2 3 17 20 12 10 15 17 2 -10 -6 -1 -4 -7 -3 8 8 1 4 5 4 4 2 4 10 7 -5 -15 -13 -3 -1 0 7 9 7 7 9 11 12 8 1 4 7 5 7 5 -3 3 13 15 12 5
7 7 8 8 7 8 7 8 9 8 8 7 7 6 5 7 9 8 9 10 9 8 7 8 7 5 9 7 1 7 8 2 1 -1 11 25 16 10 14 6 3 4 -2 -3 -9 -19 -13 -4 -1 2 5 7 5 3 5 3 2 4 5 7 7 5 2 -1 4 8 6 7 6 4 5 4 4 8 12 15 13 7 4 2 3 3 5 9 7 5 6 0
8 8 9 7 6 7 6 7 8 7 9 8 6 6 7 8 8 8 11 10 7 8 7 7 7 2 2 3 -1 -4 -6 -3 2 1 5 8 -1 -2 1 -4 -5 -10 -16 -7 -1 -3 -0 4 7 10 8 4 1 2 1 -1 1 2 0 3 2 1 5 7 8 7 8 10 8 6 4 3 7 10 15 24 16 3 5 8 9 13 11 3 -2 3 6 1
8 8 9 7 5 6 7 7 8 8 9 8 7 8 10 11 9 8 9 8 5 7 8 6 5 3 5 10 9 -0 -3 -2 -3 -4 -5 -10 -10 -0 2 -1 -2 -5 0 10 6 -1 0 1 3 8 8 5 3 6 8 9 12 12 14 23 24 24 25 21 13 13 17 14 6 4 5 7 13 11 14 22 17 10 10 5 2 3 2 4 9 11 4 1
8 8 8 8 6 4 6 7 6 6 5 5 7 8 8 8 8 8 8 9 10 10 9 7 8 9 7 7 9 8 8 7 -0 1 5 2 0 3 5 8 6 2 4 2 -3 3 8 5 5 6 5 4 6 9 7 6 11 28 45 40 26 30 41 35 24 25 33 30 22 18 12 10 16 20 25 20 3 -3 -3 -3 1 3 9 16 11 7 7 8
7 8 8 9 9 5 4 5 4 6 5 4 5 5 5 5 5 7 6 6 8 7 8 10 9 10 9 9 12 8 6 9 9 9 9 8 9 9 14 18 12 9 9 1 0 6 4 4 9 9 7 7 10 9 7 5 4 9 11 -4 -17 -14 -8 -9 -13 -11 -5 -7 -3 8 5 1 8 9 8 -3 -18 -17 -7 -1 5 7 8 3 -5 0 5 2
6 8 7 9 9 7 6 5 3 4 4 4 5 4 4 4 3 5 5 6 9 8 8 9 8 9 9 9 9 8 10 12 12 12 9 10 14 10 12 14 7 10 12 6 6 4 -0 8 13 9 9 8 8 11 10 10 6 -10 -23 -20 -14 -15 -6 6 1 -1 -2 -19 -19 -5 -11 -7 11 5 -6 -10 -15 -8 1 2 3 5 4 -0 1 10 5 -1
6 6 6 6 7 7 8 7 5 5 3 3 5 4 4 5 5 5 5 6 8 8 8 9 9 7 6 8 8 8 11 8 8 11 8 11 13 8 8 3 -6 4 13 10 12 8 4 9 8 8 13 11 11 13 10 15 25 19 13 20 18 15 31 35 22 28 23 3 18 28 -2 -7 15 15 10 12 7 8 11 6 3 5 8 8 8 10 7 6
8 7 6 5 6 7 7 7 7 6 5 5 6 5 7 7 5 5 7 7 6 6 8 8 7 6 5 8 8 6 7 6 8 9 5 6 6 6 12 5 -7 0 4 -0 4 5 4 7 5 9 13 8 7 8 10 21 27 25 32 37 27 24 28 16 16 25 -1 -11 27 29 -9 -10 6 4 9 15 13 12 12 9 10 14 16 12 10 15 17 14
10 10 10 9 9 9 8 8 8 7 6 6 5 6 8 7 6 6 7 8 7 6 6 7 7 6 6 6 5 4 5 5 6 5 5 7 5 6 10 3 -4 -3 -8 -8 1 -0 2 7 6 7 7 5 5 5 9 11 -3 -11 -0 1 -4 5 9 4 7 -6 -27 -1 26 -3 -18 6 12 7 16 23 24 20 14 13 15 15 13 11 19 21 11 4
9 8 9 10 11 9 9 9 9 10 10 9 7 6 7 6 7 7 5 6 7 5 4 8 7 5 6 6 4 3 4 5 6 5 4 6 6 7 5 -1 2 4 -3 3 9 2 2 8 7 5 4 4 6 7 10 8 -0 1 1 -14 -24 -18 -14 -15 -21 -32 -16 19 9 -19 -2 14 4 7 14 18 20 9 4 11 10 10 11 9 11 2 -10 1
9 8 6 6 7 8 8 8 7 8 9 9 8 7 8 8 7 7 7 7 7 5 6 9 9 8 8 6 5 4 4 6 8 7 6 6 5 6 5 5 9 6 -0 6 9 4 4 4 6 8 5 4 6 7 12 12 8 9 8 -1 -4 -6 -7 -7 -10 -4 17 16 -13 -9 18 9 -2 13 15 10 5 -9 -5 7 2 4 8 -0 -5 -5 3 18
7 9 6 4 6 7 8 8 9 9 8 7 7 8 9 8 8 8 8 7 6 6 8 8 8 8 8 6 7 5 2 6 12 12 7 5 5 6 6 10 11 6 3 7 7 7 3 -1 5 9 4 3 6 6 10 10 6 5 5 3 2 1 5 8 6 9 16 7 -10 -3 8 -2 -2 8 8 10 10 3 10 11 2 9 15 10 9 11 11 10
6 8 8 7 8 8 8 9 9 8 7 6 6 7 6 6 7 8 7 6 6 6 8 9 8 8 7 8 8 6 3 6 10 10 8 7 9 8 6 8 10 7 6 5 5 7 4 1 6 8 4 4 6 7 6 5 7 10 9 6 4 7 13 14 13 10 6 4 2 2 3 3 2 2 5 11 13 12 11 8 10 15 11 11 15 7 -1 -1
7 8 9 9 8 8 8 7 6 5 5 6 7 6 5 5 7 7 6 7 7 8 9 10 8 7 10 12 13 10 7 4 4 7 11 11 11 9 6 7 9 8 8 8 7 7 4 4 6 6 6 3 4 9 8 4 9 10 4 5 10 12 10 7 8 8 3 5 12 16 16 12 9 10 10 8 9 8 5 6 11 7 1 9 13 3 -1 5
8 8 9 8 6 6 6 6 6 6 6 7 8 7 6 6 6 6 5 5 7 9 9 8 8 10 11 11 11 9 5 3 4 9 10 8 9 9 8 8 10 10 9 9 9 7 7 9 8 7 9 4 4 10 6 6 15 8 -1 9 16 11 5 5 7 10 12 13 13 13 9 6 9 11 7 6 7 5 8 12 10 6 8 12 9 2 2 5
8 7 7 7 6 5 7 8 8 9 9 8 8 7 7 7 7 7 6 6 7 9 8 7 7 9 9 8 10 9 6 6 7 9 8 7 7 7 7 8 9 9 9 10 11 9 9 11 10 10 13 11 10 8 2 8 13 -0 -0 18 20 9 8 11 12 12 11 9 8 7 5 7 12 9 3 4 4 1 4 3 2 7 7 1 -0 3 6 8
Height
5836 5836 5837 5837 5838 5838 5839 5839 5840 5841 5841 5842 5842 5843 5843 5844 5844 5845 5845 5846 5846 5847 5847 5847 5848 5848 5848 5849 5849 5849 5849 5849 5850 5850 5850 5850 5850 5851 5851 5851 5850 5851 5851 5851 5851 5850 5850 5849 5849 5849 5849 5849 5849 5848 5847 5848 5849 5848 5849 5853 5856 5857 5856 5856 5856 5854 5853 5854 5856 5853 5851 5854 5853 5851 5851 5851 5852 5849 5848 5848 5846 5847 5848 5847 5845 5843 5843 5843
5836 5836 5836 5837 5838 5838 5839 5839 5840 5841 5842 5842 5843 5843 5844 5844 5844 5845 5845 5846 5846 5847 5847 5847 5848 5848 5848 5848 5849 5849 5849 5849 5850 5850 5850 5850 5850 5851 5851 5851 5851 5851 5851 5851 5851 5851 5850 5850 5849 5849 5849 5849 5849 5848 5849 5850 5851 5849 5851 5855 5857 5857 5856 5857 5856 5854 5851 5852 5853 5852 5851 5853 5853 5854 5853 5852 5853 5850 5848 5849 5848 5849 5849 5849 5846 5842 5843 5844
5835 5836 5836 5837 5838 5838 5839 5840 5840 5841 5842 5842 5843 5843 5844 5844 5845 5845 5845 5846 5846 5847 5847 5847 5848 5848 5848 5848 5848 5849 5849 5849 5850 5850 5850 5850 5850 5850 5850 5851 5851 5851 5851 5851 5851 5851 5851 5850 5850 5849 5849 5850 5848 5849 5852 5853 5853 5852 5852 5856 5858 5856 5856 5856 5855 5852 5851 5851 5851 5852 5852 5851 5852 5854 5855 5855 5855 5851 5849 5849 5850 5850 5850 5851 5848 5844 5842 5844
5835 5836 5836 5837 5838 5838 5839 5840 5840 5841 5842 5843 5843 5844 5844 5844 5845 5845 5845 5846 5846 5847 5847 5847 5848 5848 5848 5848 5848 5848 5849 5849 5849 5850 5850 5850 5850 5850 5850 5851 5851 5851 5851 5851 5851 5851 5851 5851 5850 5850 5850 5850 5849 5849 5853 5854 5854 5854 5853 5855 5857 5856 5857 5856 5853 5852 5851 5852 5852 5852 5852 5851 5851 5852 5853 5855 5854 5851 5849 5849 5850 5851 5850 5849 5849 5847 5844 5843
5836 5836 5836 5837 5838 5838 5839 5840 5840 5841 5842 5843 5843 5844 5844 5844 5845 5845 5845 5846 5846 5846 5847 5847 5847 5848 5848 5848 5848 5848 5849 5849 5849 5850 5850 5850 5850 5850 5850 5851 5851 5851 5851 5851 5851 5851 5851 5851 5851 5850 5850 5850 5849 5850 5855 5856 5855 5854 5853 5855 5857 5856 5857 5855 5852 5852 5852 5852 5852 5852 5852 5851 5852 5851 5851 5852 5851 5849 5848 5848 5849 5850 5850 5848 5848 5849 5847 5845
5837 5837 5837 5837 5838 5838 5839 5840 5840 5841 5842 5843 5843 5844 5844 5845 5845 5845 5845 5846 5846 5846 5847 5847 5847 5847 5848 5848 5848 5848 5849 5849 5849 5849 5850 5850 5850 5850 5850 5851 5851 5850 5851 5851 5851 5851 5851 5851 5851 5851 5851 5850 5849 5852 5857 5858 5855 5854 5853 5855 5857 5856 5855 5854 5852 5852 5852 5851 5851 5851 5852 5852 5852 5851 5850 5850 5850 5849 5847 5847 5848 5849 5848 5847 5848 5848 5849 5849
5838 5837 5838 5838 5838 5839 5839 5840 5840 5841 5842 5842 5843 5843 5844 5844 5845 5845 5845 5846 5846 5846 5847 5847 5847 5847 5848 5848 5848 5848 5848 5849 5849 5849 5849 5850 5850 5850 5850 5850 5851 5850 5850 5851 5851 5851 5851 5852 5852 5851 5851 5850 5850 5855 5857 5855 5854 5854 5853 5855 5858 5855 5854 5854 5852 5853 5852 5851 5851 5851 5851 5852 5851 5850 5851 5852 5851 5850 5848 5847 5848 5849 5848 5847 5849 5849 5849 5851
5838 5838 5838 5838 5839 5839 5840 5840 5840 5841 5842 5842 5843 5843 5844 5844 5845 5845 5845 5846 5846 5846 5847 5847 5847 5847 5848 5848 5848 5848 5848 5849 5849 5849 5849 5849 5849 5850 5850 5850 5850 5850 5850 5850 5851 5851 5851 5851 5852 5851 5851 5850 5851 5854 5855 5853 5854 5854 5853 5856 5857 5855 5855 5853 5852 5852 5851 5851 5851 5851 5851 5852 5851 5849 5850 5851 5852 5852 5850 5848 5848 5847 5847 5848 5849 5850 5849 5849
5838 5838 5839 5839 5839 5839 5840 5840 5840 5841 5841 5842 5843 5843 5844 5844 5845 5845 5845 5846 5846 5846 5847 5847 5847 5847 5848 5848 5848 5848 5849 5849 5849 5849 5849 5849 5849 5849 5850 5850 5850 5850 5850 5850 5850 5850 5851 5851 5851 5851 5851 5851 5851 5852 5852 5853 5854 5853 5853 5854 5853 5854 5855 5853 5853 5853 5851 5851 5851 5850 5851 5851 5850 5849 5849 5849 5849 5851 5850 5847 5846 5846 5846 5848 5849 5849 5849 5849
5839 5839 5839 5839 5839 5839 5840 5840 5840 5841 5841 5842 5842 5843 5843 5844 5845 5845 5845 5846 5846 5847 5847 5847 5847 5847 5848 5848 5848 5848 5848 5849 5849 5849 5849 5849 5849 5849 5849 5850 5850 5850 5850 5850 5850 5850 5850 5850 5850 5851 5851 5851 5852 5852 5852 5852 5853 5853 5852 5852 5852 5852 5853 5853 5855 5854 5851 5851 5851 5851 5851 5850 5849 5848 5848 5848 5847 5848 5848 5846 5846 5846 5846 5847 5849 5848 5848 5849
5839 5839 5839 5839 5839 5840 5840 5840 5840 5841 5841 5842 5842 5843 5843 5844 5844 5845 5845 5846 5846 5847 5847 5847 5847 5848 5848 5848 5848 5848 5848 5848 5849 5849 5849 5849 5849 5849 5849 5849 5850 5850 5850 5850 5850 5850 5850 5850 5850 5850 5851 5851 5851 5852 5852 5852 5852 5852 5852 5852 5851 5850 5851 5851 5852 5852 5850 5851 5851 5851 5850 5849 5848 5848 5848 5848 5847 5847 5844 5843 5846 5847 5846 5846 5847 5847 5848 5849
5840 5840 5839 5839 5839 5839 5840 5840 5840 5840 5841 5841 5842 5843 5843 5844 5844 5845 5845 5846 5846 5847 5847 5847 5847 5847 5848 5848 5848 5848 5848 5848 5848 5849 5849 5849 5849 5849 5849 5849 5849 5850 5850 5850 5850 5850 5850 5850 5850 5850 5850 5850 5851 5851 5851 5852 5852 5852 5851 5851 5851 5850 5851 5852 5851 5852 5852 5851 5850 5850 5850 5848 5847 5847 5848 5847 5847 5846 5841 5839 5845 5848 5846 5846 5847 5847 5848 5849
5840 5840 5840 5840 5840 5840 5840 5840 5840 5840 5841 5841 5842 5842 5843 5844 5844 5845 5845 5846 5846 5846 5847 5847 5847 5847 5847 5847 5847 5848 5848 5848 5848 5848 5848 5848 5848 5848 5848 5849 5849 5849 5849 5850 5850 5850 5850 5850 5850 5849 5850 5850 5850 5850 5850 5851 5851 5851 5851 5851 5851 5851 5853 5854 5853 5854 5855 5852 5850 5848 5849 5848 5846 5846 5846 5845 5845 5845 5841 5837 5841 5846 5846 5846 5847 5847 5847 5847
5840 5840 5840 5840 5840 5840 5840 5840 5840 5840 5841 5841 5842 5843 5843 5844 5844 5845 5845 5845 5846 5846 5846 5847 5847 5847 5847 5847 5847 5847 5847 5847 5848 5848 5848 5848 5848 5848 5848 5848 5848 5848 5849 5849 5849 5850 5850 5850 5849 5849 5849 5849 5849 5849 5850 5850 5850 5851 5851 5850 5851 5852 5855 5854 5853 5853 5854 5852 5850 5848 5848 5847 5846 5845 5844 5844 5845 5844 5841 5837 5838 5842 5843 5844 5846 5845 5844 5844
5840 5840 5840 5840 5840 5840 5840 5840 5840 5841 5841 5841 5842 5843 5843 5844 5844 5845 5845 5845 5845 5846 5846 5846 5847 5847 5847 5847 5847 5847 5847 5847 5847 5847 5847 5847 5847 5847 5847 5847 5847 5848 5848 5848 5849 5849 5849 5849 5849 5849 5849 5849 5849 5849 5849 5849 5849 5850 5850 5851 5852 5853 5854 5854 5852 5852 5852 5850 5849 5848 5847 5846 5844 5845 5843 5842 5843 5842 5840 5837 5838 5840 5839 5841 5842 5840 5838 5837
5840 5840 5840 5840 5840 5840 5840 5840 5841 5841 5841 5842 5842 5843 5843 5844 5844 5845 5845 5845 5845 5845 5846 5846 5846 5846 5846 5846 5846 5846 5846 5847 5847 5847 5847 5847 5847 5846 5846 5846 5846 5847 5847 5847 5848 5848 5848 5848 5848 5849 5849 5849 5849 5849 5849 5849 5850 5852 5852 5853 5854 5853 5853 5853 5851 5851 5851 5850 5849 5848 5846 5844 5845 5845 5843 5841 5840 5840 5839 5837 5837 5838 5838 5838 5838 5836 5834 5834
5840 5840 5840 5840 5840 5840 5840 5840 5841 5841 5841 5842 5842 5843 5843 5843 5844 5844 5844 5845 5845 5845 5845 5845 5845 5846 5846 5846 5846 5846 5846 5846 5846 5846 5846 5846 5846 5846 5846 5845 5845 5846 5846 5846 5846 5847 5847 5848 5848 5848 5849 5849 5848 5848 5848 5849 5852 5853 5852 5852 5853 5853 5853 5853 5852 5850 5849 5848 5849 5849 5846 5843 5843 5845 5844 5842 5840 5838 5837 5836 5835 5835 5837 5837 5837 5836 5835 5835
5840 5839 5839 5839 5839 5840 5840 5840 5840 5841 5841 5842 5842 5842 5843 5843 5843 5844 5844 5844 5844 5844 5845 5845 5845 5845 5845 5845 5845 5845 5845 5845 5845 5845 5846 5846 5846 5845 5845 5845 5845 5845 5845 5845 5845 5846 5847 5847 5847 5847 5847 5847 5847 5848 5849 5851 5852 5852 5852 5851 5852 5853 5853 5853 5852 5850 5848 5848 5848 5848 5847 5844 5840 5841 5842 5841 5839 5838 5836 5835 5835 5835 5836 5837 5837 5837 5837 5836
5839 5839 5839 5839 5839 5839 5839 5840 5840 5840 5841 5841 5842 5842 5842 5843 5843 5843 5843 5843 5844 5844 5844 5844 5844 5844 5844 5844 5844 5844 5844 5844 5845 5845 5845 5845 5845 5844 5844 5844 5844 5844 5844 5845 5844 5844 5845 5846 5846 5846 5846 5846 5847 5848 5850 5852 5852 5851 5851 5851 5852 5852 5852 5853 5853 5850 5847 5847 5848 5847 5848 5846 5841 5839 5840 5840 5839 5837 5836 5835 5835 5835 5836 5837 5836 5837 5837 5836
5839 5839 5839 5839 5839 5839 5839 5839 5839 5840 5840 5840 5841 5841 5841 5842 5842 5842 5842 5843 5843 5843 5843 5843 5843 5843 5843 5843 5843 5843 5843 5843 5844 5844 5844 5844 5844 5843 5843 5843 5843 5843 5843 5843 5843 5843 5843 5844 5845 5845 5845 5846 5849 5850 5851 5851 5849 5849 5850 5850 5851 5851 5851 5852 5852 5851 5846 5845 5846 5846 5846 5845 5843 5840 5838 5838 5838 5837 5836 5836 5835 5835 5836 5837 5836 5836 5836 5835
5839 5839 5839 5838 5838 5838 5838 5838 5838 5839 5839 5839 5840 5840 5840 5841 5841 5841 5842 5842 5842 5842 5842 5842 5842 5842 5842 5842 5842 5842 5842 5843 5843 5843 5843 5843 5843 5843 5842 5842 5842 5842 5842 5842 5841 5841 5842 5843 5844 5844 5844 5847 5849 5849 5848 5848 5847 5847 5848 5848 5849 5850 5851 5851 5851 5850 5845 5843 5845 5844 5843 5843 5842 5840 5838 5837 5837 5836 5836 5836 5835 5834 5835 5836 5835 5835 5834 5834
5839 5838 5838 5838 5838 5838 5838 5838 5838 5838 5838 5838 5839 5839 5839 5840 5840 5840 5841 5841 5841 5841 5841 5841 5841 5841 5841 5841 5841 5841 5842 5842 5842 5842 5842 5842 5842 5842 5842 5842 5841 5842 5842 5841 5841 5842 5842 5842 5843 5844 5845 5848 5848 5846 5844 5845 5845 5845 5846 5846 5847 5848 5850 5849 5849 5849 5845 5843 5843 5843 5842 5841 5840 5838 5836 5836 5835 5835 5835 5834 5834 5833 5833 5834 5834 5834 5833 5832
5839 5838 5838 5838 5837 5837 5837 5837 5837 5837 5837 5837 5838 5838 5838 5839 5839 5839 5839 5839 5840 5840 5840 5840 5840 5840 5840 5840 5840 5840 5840 5841 5841 5841 5841 5841 5841 5841 5841 5841 5841 5841 5841 5841 5842 5843 5843 5843 5844 5845 5846 5847 5846 5843 5842 5843 5843 5844 5844 5844 5846 5847 5848 5847 5847 5846 5843 5842 5842 5841 5840 5839 5839 5837 5834 5835 5834 5833 5833 5832 5832 5832 5831 5832 5832 5832 5832 5831
5838 5838 5837 5837 5837 5837 5836 5836 5836 5836 5836 5836 5837 5837 5837 5837 5837 5838 5838 5838 5838 5838 5839 5839 5839 5839 5839 5839 5839 5839 5839 5839 5839 5840 5840 5840 5840 5840 5840 5840 5840 5840 5840 5842 5843 5843 5843 5843 5845 5845 5844 5843 5842 5842 5842 5842 5842 5842 5843 5844 5845 5846 5846 5847 5846 5844 5842 5841 5840 5840 5838 5837 5837 5836 5834 5834 5833 5831 5831 5831 5830 5829 5830 5830 5830 5830 5830 5829
5838 5837 5837 5837 5836 5836 5836 5835 5835 5835 5835 5836 5835 5835 5836 5836 5836 5836 5836 5837 5837 5837 5837 5837 5837 5838 5838 5838 5838 5838 5838 5838 5838 5839 5839 5839 5839 5839 5839 5839 5840 5840 5840 5841 5842 5842 5842 5842 5842 5842 5841 5841 5841 5841 5840 5841 5841 5841 5842 5842 5845 5846 5845 5844 5845 5843 5841 5840 5839 5838 5838 5836 5836 5835 5832 5833 5833 5830 5829 5830 5829 5828 5828 5828 5828 5827 5827 5827
5837 5836 5836 5836 5836 5836 5835 5835 5835 5834 5834 5834 5834 5834 5834 5834 5835 5835 5835 5835 5835 5836 5836 5836 5836 5837 5836 5837 5837 5837 5837 5837 5837 5838 5838 5838 5838 5838 5838 5838 5839 5839 5839 5839 5840 5840 5841 5840 5839 5839 5840 5839 5840 5840 5839 5839 5839 5841 5841 5840 5841 5842 5840 5839 5840 5839 5837 5838 5838 5837 5836 5835 5834 5833 5831 5829 5830 5828 5827 5829 5829 5828 5827 5827 5826 5826 5825 5824
5836 5836 5835 5835 5835 5835 5835 5834 5834 5834 5833 5833 5833 5833 5833 5833 5833 5833 5834 5834 5833 5834 5835 5835 5835 5835 5835 5836 5837 5836 5836 5836 5835 5836 5836 5836 5837 5837 5837 5837 5838 5838 5837 5837 5839 5838 5838 5839 5838 5837 5838 5838 5839 5840 5839 5837 5837 5840 5841 5837 5836 5837 5836 5836 5837 5836 5835 5835 5835 5835 5834 5832 5830 5832 5830 5826 5826 5827 5827 5827 5827 5826 5826 5825 5824 5824 5823 5822
5834 5835 5834 5834 5834 5834 5834 5834 5834 5833 5833 5833 5832 5832 5832 5832 5832 5832 5832 5833 5833 5833 5833 5834 5835 5834 5834 5835 5835 5835 5835 5835 5835 5834 5835 5835 5835 5836 5836 5836 5837 5837 5835 5836 5838 5836 5835 5836 5836 5835 5836 5837 5837 5837 5836 5835 5835 5838 5837 5833 5833 5835 5834 5834 5834 5833 5833 5831 5831 5833 5834 5830 5828 5830 5830 5824 5823 5825 5825 5825 5824 5824 5824 5823 5822 5821 5821 5820
5833 5833 5833 5833 5833 5833 5833 5833 5833 5833 5832 5832 5832 5831 5831 5831 5831 5831 5832 5832 5832 5831 5832 5833 5833 5832 5832 5833 5834 5834 5833 5834 5833 5832 5833 5834 5834 5834 5834 5834 5835 5835 5834 5834 5836 5836 5834 5833 5833 5834 5835 5834 5835 5834 5832 5833 5834 5834 5833 5831 5832 5832 5832 5832 5831 5831 5831 5828 5828 5830 5831 5828 5827 5828 5826 5822 5822 5822 5821 5821 5821 5821 5821 5821 5820 5819 5818 5817
5831 5831 5831 5831 5831 5831 5831 5831 5831 5831 5831 5831 5831 5831 5830 5830 5830 5830 5831 5832 5831 5830 5830 5831 5831 5831 5831 5831 5831 5832 5831 5832 5831 5830 5831 5832 5831 5832 5832 5832 5833 5833 5832 5832 5833 5834 5834 5831 5830 5831 5832 5832 5831 5831 5830 5831 5832 5831 5830 5829 5830 5829 5829 5829 5828 5827 5826 5824 5826 5828 5828 5826 5825 5825 5821 5819 5820 5819 5816 5817 5818 5819 5818 5817 5817 5815 5814 5813
5829 5829 5829 5829 5829 5829 5829 5829 5829 5830 5830 5830 5830 5830 5829 5829 5829 5830 5830 5831 5830 5829 5829 5829 5828 5829 5829 5829 5829 5829 5830 5830 5828 5828 5829 5829 5829 5829 5830 5830 5829 5830 5830 5830 5830 5831 5831 5830 5829 5828 5828 5828 5828 5828 5829 5829 5829 5828 5827 5827 5827 5826 5826 5826 5826 5825 5823 5821 5823 5825 5825 5824 5823 5824 5821 5816 5815 5815 5813 5812 5814 5816 5815 5813 5812 5811 5810 5810
5826 5826 5826 5826 5826 5826 5827 5827 5827 5827 5828 5828 5828 5828 5828 5828 5828 5828 5828 5829 5829 5828 5827 5828 5827 5827 5828 5828 5829 5829 5829 5829 5828 5827 5827 5827 5826 5826 5827 5828 5827 5826 5828 5828 5829 5829 5830 5830 5830 5828 5826 5824 5825 5826 5826 5827 5827 5824 5824 5825 5824 5824 5824 5825 5825 5825 5822 5821 5823 5824 5824 5823 5821 5822 5821 5815 5812 5810 5809 5809 5809 5810 5811 5810 5809 5807 5805 5805
5823 5823 5824 5824 5824 5824 5824 5824 5824 5825 5825 5825 5826 5826 5826 5826 5827 5827 5828 5828 5827 5826 5827 5827 5826 5826 5826 5827 5827 5828 5828 5828 5828 5827 5826 5825 5825 5825 5827 5829 5827 5826 5826 5826 5826 5826 5826 5827 5828 5830 5828 5822 5822 5825 5824 5825 5826 5823 5824 5825 5824 5824 5823 5822 5821 5821 5820 5821 5822 5823 5822 5821 5819 5819 5816 5814 5811 5807 5804 5805 5805 5804 5805 5806 5806 5804 5802 5800
5820 5821 5821 5821 5821 5821 5821 5822 5822 5822 5822 5823 5823 5823 5824 5824 5824 5824 5825 5823 5822 5824 5825 5824 5824 5824 5824 5825 5826 5826 5826 5826 5826 5827 5826 5823 5823 5824 5825 5827 5826 5825 5825 5825 5824 5823 5823 5824 5825 5828 5827 5820 5819 5823 5823 5823 5824 5824 5824 5823 5822 5822 5820 5818 5817 5816 5816 5816 5816 5817 5817 5817 5816 5815 5812 5810 5808 5803 5802 5803 5801 5800 5800 5801 5802 5800 5799 5797
5818 5818 5818 5819 5819 5819 5819 5819 5820 5820 5820 5820 5820 5821 5821 5821 5820 5820 5821 5819 5819 5822 5822 5820 5822 5822 5822 5823 5824 5823 5823 5823 5824 5824 5824 5822 5821 5821 5822 5824 5825 5824 5824 5823 5822 5820 5819 5821 5823 5823 5821 5818 5818 5820 5818 5818 5819 5821 5821 5819 5818 5819 5817 5814 5813 5812 5812 5809 5809 5811 5812 5811 5812 5811 5810 5809 5803 5798 5798 5800 5798 5796 5795 5796 5797 5796 5795 5793
5815 5815 5815 5816 5816 5816 5816 5817 5817 5817 5817 5817 5818 5818 5816 5816 5816 5816 5817 5817 5816 5818 5819 5818 5819 5819 5819 5821 5823 5822 5819 5820 5821 5819 5819 5819 5819 5819 5819 5821 5823 5823 5822 5819 5817 5816 5815 5816 5818 5817 5816 5816 5816 5816 5814 5813 5813 5815 5817 5816 5815 5815 5812 5810 5808 5808 5808 5804 5804 5806 5805 5805 5806 5806 5806 5806 5802 5795 5793 5795 5793 5791 5791 5792 5792 5791 5790 5789
5813 5813 5813 5813 5813 5813 5813 5814 5814 5814 5814 5815 5814 5814 5812 5812 5812 5813 5814 5815 5814 5814 5816 5816 5816 5816 5817 5818 5820 5820 5815 5815 5818 5816 5815 5816 5816 5816 5817 5817 5818 5818 5816 5813 5811 5811 5811 5811 5814 5814 5813 5812 5813 5811 5809 5809 5810 5810 5812 5813 5812 5809 5806 5804 5803 5804 5803 5800 5800 5802 5801 5800 5801 5800 5798 5799 5799 5793 5789 5789 5788 5786 5786 5787 5787 5786 5786 5784
5810 5810 5810 5810 5810 5810 5810 5810 5811 5810 5811 5811 5810 5810 5810 5808 5808 5811 5812 5812 5811 5811 5812 5813 5813 5812 5812 5814 5816 5816 5811 5811 5813 5813 5812 5812 5811 5813 5813 5812 5812 5811 5810 5808 5807 5807 5806 5806 5809 5810 5809 5808 5809 5807 5804 5804 5805 5805 5806 5806 5806 5806 5804 5801 5800 5799 5798 5794 5794 5797 5797 5796 5796 5797 5794 5792 5792 5790 5786 5784 5782 5781 5780 5780 5781 5781 5780 5779
5806 5807 5807 5807 5807 5807 5807 5807 5807 5807 5807 5807 5806 5807 5808 5805 5805 5808 5809 5808 5808 5808 5808 5808 5808 5807 5808 5810 5811 5810 5808 5808 5808 5808 5809 5808 5807 5808 5809 5809 5808 5808 5807 5805 5801 5802 5802 5802 5804 5806 5804 5803 5805 5804 5801 5800 5800 5801 5801 5799 5797 5799 5799 5798 5796 5795 5794 5791 5790 5791 5792 5792 5793 5793 5791 5787 5785 5784 5782 5779 5777 5775 5775 5775 5775 5775 5775 5774
5802 5802 5803 5804 5804 5804 5804 5804 5804 5803 5803 5803 5802 5803 5804 5803 5802 5803 5804 5804 5804 5804 5804 5804 5803 5804 5803 5804 5805 5806 5806 5805 5803 5803 5805 5805 5805 5804 5804 5805 5803 5803 5804 5801 5795 5795 5798 5798 5798 5800 5799 5798 5800 5802 5798 5796 5797 5797 5798 5796 5793 5793 5793 5792 5791 5791 5789 5787 5787 5786 5785 5787 5790 5790 5788 5785 5780 5777 5777 5776 5773 5771 5770 5769 5769 5769 5769 5769
5797 5797 5798 5800 5799 5800 5800 5799 5799 5799 5799 5799 5799 5799 5800 5800 5799 5799 5799 5800 5800 5800 5800 5800 5799 5799 5799 5799 5800 5800 5800 5801 5800 5800 5800 5801 5802 5801 5800 5800 5797 5796 5797 5795 5791 5791 5792 5793 5793 5794 5794 5793 5796 5798 5796 5795 5794 5794 5793 5793 5793 5791 5789 5788 5787 5787 5787 5784 5783 5781 5778 5782 5786 5784 5783 5781 5775 5772 5771 5770 5768 5767 5767 5765 5764 5764 5763 5762
5793 5792 5793 5795 5795 5795 5795 5794 5795 5795 5794 5795 5796 5794 5795 5796 5795 5795 5795 5795 5796 5796 5795 5796 5795 5795 5794 5794 5795 5795 5795 5796 5796 5796 5796 5796 5797 5797 5797 5795 5792 5789 5788 5788 5788 5787 5786 5787 5787 5788 5789 5789 5790 5792 5792 5791 5791 5790 5787 5786 5788 5788 5786 5783 5780 5781 5782 5780 5779 5776 5771 5775 5782 5780 5778 5777 5772 5768 5767 5765 5762 5762 5762 5759 5757 5757 5756 5754
5788 5788 5789 5790 5790 5790 5790 5789 5789 5790 5789 5790 5791 5790 5790 5791 5790 5790 5790 5790 5791 5791 5790 5791 5791 5790 5789 5790 5790 5790 5791 5791 5791 5791 5791 5791 5792 5792 5792 5791 5787 5784 5782 5782 5782 5780 5781 5781 5781 5782 5784 5784 5785 5785 5786 5785 5785 5785 5783 5780 5780 5781 5780 5777 5774 5774 5773 5772 5773 5769 5764 5768 5775 5774 5774 5773 5769 5765 5763 5760 5759 5758 5756 5752 5750 5750 5749 5746
5783 5783 5783 5785 5785 5784 5784 5784 5784 5785 5784 5785 5786 5785 5785 5786 5785 5785 5786 5786 5786 5786 5786 5786 5786 5785 5785 5785 5785 5785 5785 5785 5786 5787 5786 5786 5786 5786 5787 5786 5782 5779 5778 5776 5774 5774 5776 5776 5775 5776 5777 5777 5778 5779 5780 5780 5778 5778 5779 5776 5774 5775 5774 5771 5770 5769 5766 5766 5767 5762 5757 5763 5768 5767 5767 5767 5764 5762 5760 5758 5756 5754 5750 5746 5744 5744 5743 5740
5778 5778 5778 5779 5780 5779 5778 5778 5778 5778 5779 5780 5781 5780 5780 5780 5780 5780 5781 5781 5780 5780 5781 5781 5781 5780 5780 5779 5779 5779 5779 5780 5781 5780 5780 5781 5781 5781 5781 5779 5776 5775 5772 5770 5768 5768 5770 5771 5771 5771 5770 5771 5772 5772 5774 5774 5771 5771 5773 5772 5769 5769 5769 5767 5765 5762 5758 5759 5760 5755 5752 5757 5760 5759 5759 5759 5757 5754 5754 5754 5751 5748 5744 5740 5737 5735 5734 5732
5772 5772 5773 5774 5774 5773 5773 5773 5773 5773 5773 5773 5775 5775 5775 5775 5774 5774 5774 5776 5776 5774 5774 5776 5776 5775 5775 5774 5773 5772 5773 5774 5775 5774 5774 5775 5774 5776 5775 5772 5771 5769 5767 5766 5765 5763 5762 5765 5766 5765 5763 5764 5765 5766 5767 5765 5763 5764 5765 5765 5764 5763 5763 5761 5758 5755 5754 5753 5751 5749 5749 5749 5751 5753 5751 5751 5750 5748 5746 5746 5744 5742 5739 5735 5733 5730 5726 5725
5766 5766 5767 5769 5768 5767 5767 5767 5767 5768 5767 5767 5768 5769 5769 5769 5769 5768 5767 5768 5770 5769 5768 5770 5770 5769 5769 5768 5767 5766 5765 5768 5770 5769 5768 5767 5767 5768 5767 5767 5767 5764 5763 5763 5762 5758 5756 5757 5760 5758 5756 5757 5758 5759 5760 5758 5756 5756 5756 5755 5757 5757 5756 5754 5750 5749 5751 5747 5742 5744 5745 5741 5743 5747 5743 5742 5743 5742 5741 5740 5737 5735 5733 5730 5729 5726 5721 5718
5760 5759 5760 5763 5763 5762 5762 5761 5761 5763 5762 5761 5761 5762 5763 5763 5763 5763 5762 5761 5762 5762 5763 5763 5763 5763 5763 5761 5761 5759 5757 5760 5764 5764 5761 5760 5760 5760 5760 5762 5762 5759 5757 5757 5757 5754 5749 5749 5752 5750 5748 5750 5752 5752 5752 5750 5748 5748 5747 5747 5749 5751 5750 5747 5744 5744 5745 5740 5736 5739 5739 5735 5736 5740 5738 5735 5735 5734 5733 5733 5731 5729 5726 5724 5723 5720 5714 5711
5754 5753 5753 5755 5756 5755 5756 5756 5755 5756 5756 5756 5756 5756 5757 5757 5757 5758 5757 5755 5754 5754 5756 5757 5756 5755 5755 5755 5755 5753 5749 5751 5755 5756 5755 5754 5754 5753 5753 5754 5755 5753 5751 5750 5749 5747 5743 5743 5745 5741 5739 5743 5746 5745 5745 5742 5739 5739 5740 5741 5743 5743 5742 5740 5737 5737 5735 5731 5731 5732 5731 5729 5732 5733 5731 5729 5728 5726 5724 5724 5723 5722 5718 5716 5715 5712 5708 5707
5746 5747 5747 5748 5749 5749 5749 5749 5749 5749 5750 5750 5750 5750 5750 5750 5751 5751 5750 5749 5747 5747 5748 5750 5748 5748 5748 5748 5748 5747 5744 5742 5744 5746 5747 5748 5748 5747 5746 5746 5746 5746 5745 5743 5742 5739 5736 5736 5738 5734 5730 5732 5738 5738 5736 5733 5731 5730 5732 5736 5737 5735 5733 5731 5730 5731 5728 5724 5725 5725 5721 5721 5725 5726 5723 5721 5720 5719 5717 5715 5714 5713 5710 5708 5707 5705 5703 5701
5739 5739 5740 5740 5741 5742 5742 5742 5742 5742 5743 5743 5743 5742 5742 5742 5744 5744 5744 5743 5742 5740 5740 5740 5740 5740 5740 5740 5740 5740 5738 5736 5736 5737 5738 5738 5739 5739 5738 5739 5738 5737 5736 5736 5734 5732 5731 5729 5730 5728 5721 5722 5731 5731 5725 5724 5722 5722 5727 5732 5730 5726 5724 5723 5724 5724 5721 5718 5717 5716 5712 5713 5718 5718 5715 5714 5713 5710 5709 5708 5706 5704 5702 5700 5699 5697 5696 5694
5731 5732 5732 5732 5733 5735 5735 5735 5735 5735 5735 5736 5736 5735 5734 5735 5736 5735 5735 5736 5737 5735 5732 5731 5732 5733 5733 5732 5731 5731 5731 5731 5730 5730 5730 5730 5730 5730 5729 5730 5730 5729 5728 5727 5726 5726 5725 5721 5721 5721 5714 5713 5723 5723 5717 5714 5710 5712 5723 5727 5722 5720 5719 5716 5715 5714 5712 5710 5708 5706 5705 5708 5711 5709 5706 5706 5705 5703 5701 5701 5699 5696 5694 5692 5692 5690 5687 5686